CW4745 Weather Reports


Display with metric or nautical units.
time (UTC)temp
F
wind
direction
speed
MPH
gust
MPH
rain 1hr
in
rain 24hr
in
rain mn
in
humidity
%
barometer
mb
20181017095450 65 238 7.0 13.0 0.00 0.00 0.00 70 1018.4
20181017094451 65 245 8.0 14.0 0.00 0.00 0.00 71 1018.4
20181017093450 64 253 7.0 11.0 0.00 0.00 0.00 73 1018.4
20181017092449 64 175 6.0 12.0 0.00 0.00 0.00 75 1018.4
20181017091450 63 232 6.0 12.0 0.00 0.00 0.00 76 1018.3
20181017090450 62 207 5.0 11.0 0.00 0.00 0.00 78 1018.3
20181017085448 62 229 5.0 12.0 0.00 0.00 0.00 79 1018.2
20181017084448 61 201 3.0 7.0 0.00 0.00 0.00 84 1018.1
20181017083500 60 202 2.0 6.0 0.00 0.00 0.00 87 1018.1
20181017082449 60 214 2.0 5.0 0.00 0.00 0.00 89 1018.0
20181017081446 60 205 0.0 3.0 0.00 0.00 0.00 90 1018.1
20181017080446 60 205 1.0 3.0 0.00 0.00 0.00 90 1018.0
20181017075445 60 205 2.0 3.0 0.00 0.00 0.00 91 1017.8
20181017074445 59 205 1.0 2.0 0.00 0.00 0.00 91 1017.9
20181017073445 58 205 0.0 2.0 0.00 0.00 0.00 90 1017.7
20181017072446 58 205 1.0 2.0 0.00 0.00 0.00 90 1017.8
20181017071445 57 205 0.0 2.0 0.00 0.00 0.00 90 1017.8
20181017070445 57 205 1.0 2.0 0.00 0.00 0.00 90 1017.8
20181017065445 56 205 1.0 3.0 0.00 0.00 0.00 89 1017.7
20181017064444 56 205 1.0 3.0 0.00 0.00 0.00 89 1017.8
20181017063444 56 205 1.0 3.0 0.00 0.00 0.00 89 1017.7
20181017062444 56 205 1.0 2.0 0.00 0.00 0.00 89 1017.7
20181017061443 56 205 1.0 3.0 0.00 0.00 0.00 89 1017.6
20181017060443 56 205 2.0 3.0 0.00 0.00 0.00 89 1017.5
20181017055443 56 205 2.0 3.0 0.00 0.00 0.00 89 1017.4
20181017054446 56 205 2.0 3.0 0.00 0.00 0.00 89 1017.3
20181017053443 57 205 1.0 2.0 0.00 0.00 0.00 89 1017.2
20181017052443 58 205 0.0 2.0 0.00 0.00 0.00 89 1017.1
20181017051442 58 205 1.0 3.0 0.00 0.00 0.00 89 1017.0
20181017050442 58 205 2.0 4.0 0.00 0.00 0.00 89 1017.0
20181017045443 58 205 2.0 3.0 0.00 0.00 0.00 89 1017.0
20181017044446 58 212 1.0 4.0 0.00 0.00 0.00 89 1017.1
20181017043443 58 221 2.0 4.0 0.00 0.00 0.00 88 1017.0
20181017042443 58 221 2.0 3.0 0.00 0.00 0.00 88 1017.0
20181017041441 57 221 2.0 5.0 0.00 0.00 0.00 88 1016.9
20181017040441 57 221 2.0 5.0 0.00 0.00 0.00 88 1016.9
20181017035443 57 216 3.0 5.0 0.00 0.00 0.00 88 1016.8
20181017034440 57 233 3.0 6.0 0.00 0.00 0.00 87 1016.6
20181017033440 56 233 3.0 5.0 0.00 0.00 0.00 87 1016.7
20181017032441 56 222 3.0 4.0 0.00 0.00 0.00 86 1016.5
20181017031445 56 222 2.0 4.0 0.00 0.00 0.00 86 1016.4
20181017030439 56 222 2.0 3.0 0.00 0.00 0.00 85 1016.3
20181017025440 56 222 2.0 3.0 0.00 0.00 0.00 84 1016.2
20181017024439 56 222 2.0 3.0 0.00 0.00 0.00 84 1016.1
20181017023439 56 222 2.0 3.0 0.00 0.00 0.00 83 1016.1
20181017022438 56 222 2.0 3.0 0.00 0.00 0.00 83 1016.2
20181017021440 57 222 2.0 3.0 0.00 0.00 0.00 83 1016.3
20181017020442 57 222 1.0 2.0 0.00 0.00 0.00 82 1016.3
20181017015445 58 222 1.0 3.0 0.00 0.00 0.00 82 1016.3
20181017014440 58 222 1.0 3.0 0.00 0.00 0.00 82 1016.5
20181017013439 58 222 1.0 3.0 0.00 0.00 0.00 83 1016.5
20181017012444 58 222 2.0 5.0 0.00 0.00 0.00 83 1016.6
20181017011439 58 219 3.0 5.0 0.00 0.00 0.00 82 1016.6
20181017010438 58 211 3.0 4.0 0.00 0.00 0.00 81 1016.6
20181017005441 58 211 2.0 4.0 0.00 0.00 0.00 80 1016.5
20181017004437 58 211 1.0 3.0 0.00 0.00 0.00 79 1016.7
20181017003438 59 211 2.0 3.0 0.00 0.00 0.00 78 1016.7
20181017002438 59 211 1.0 2.0 0.00 0.00 0.00 76 1016.6
20181017001437 60 211 1.0 2.0 0.00 0.00 0.00 76 1016.7
20181017000437 60 211 2.0 4.0 0.00 0.00 0.00 76 1016.6
20181016235437 60 211 1.0 4.0 0.00 0.00 0.00 75 1016.6
20181016234437 61 211 2.0 4.0 0.00 0.00 0.00 74 1016.7
20181016233437 61 221 2.0 4.0 0.00 0.00 0.00 73 1016.4
20181016232435 61 221 2.0 9.0 0.00 0.00 0.00 73 1016.4
20181016231440 61 223 4.0 11.0 0.00 0.00 0.00 73 1016.6
20181016230432 61 253 5.0 11.0 0.00 0.00 0.00 73 1016.4
20181016225432 61 159 4.0 7.0 0.00 0.00 0.00 73 1016.3
20181016224433 60 140 4.0 6.0 0.00 0.00 0.00 73 1016.3
20181016223441 61 164 3.0 5.0 0.00 0.00 0.00 73 1016.5
20181016222433 61 143 4.0 7.0 0.00 0.00 0.00 73 1016.4
20181016221432 61 173 3.0 6.0 0.00 0.00 0.00 73 1016.5
20181016220432 61 154 4.0 5.0 0.00 0.00 0.00 73 1016.4
20181016215432 61 153 3.0 7.0 0.00 0.00 0.00 73 1016.5
20181016214441 61 156 4.0 9.0 0.00 0.00 0.00 74 1016.5
20181016213432 60 137 4.0 9.0 0.00 0.00 0.00 76 1016.5
20181016212430 58 140 3.0 6.0 0.00 0.00 0.00 78 1016.6
20181016211432 58 136 4.0 5.0 0.00 0.00 0.00 79 1016.6
20181016210431 57 173 2.0 4.0 0.00 0.00 0.00 78 1016.6
20181016205430 57 177 3.0 4.0 0.00 0.00 0.00 78 1016.6
20181016204429 57 177 2.0 4.0 0.00 0.00 0.00 77 1016.8
20181016203427 57 178 3.0 4.0 0.00 0.00 0.00 77 1016.8
20181016202428 57 178 2.0 4.0 0.00 0.00 0.00 76 1016.9
20181016201428 57 178 2.0 4.0 0.00 0.00 0.00 76 1016.9
20181016200428 57 178 2.0 4.0 0.00 0.00 0.00 76 1016.9
20181016195426 57 178 2.0 4.0 0.00 0.00 0.00 75 1016.9
20181016194427 57 178 3.0 4.0 0.00 0.00 0.00 75 1017.0
20181016193428 57 180 2.0 4.0 0.00 0.00 0.00 75 1016.9
20181016192426 57 180 2.0 4.0 0.00 0.00 0.00 76 1016.9
20181016191427 57 180 2.0 3.0 0.00 0.00 0.00 75 1016.9
20181016190426 57 180 2.0 3.0 0.00 0.00 0.00 75 1017.0
20181016185425 57 180 2.0 3.0 0.00 0.00 0.00 73 1017.1
20181016184425 57 180 1.0 2.0 0.00 0.00 0.00 71 1017.2
20181016183426 58 180 1.0 2.0 0.00 0.00 0.00 71 1017.2
20181016182425 58 180 1.0 2.0 0.00 0.00 0.00 71 1017.3
20181016181424 59 180 1.0 2.0 0.00 0.00 0.00 70 1017.3
20181016180424 59 180 1.0 2.0 0.00 0.00 0.00 69 1017.3
20181016175424 60 180 1.0 2.0 0.00 0.00 0.00 69 1017.3
20181016174424 60 180 1.0 2.0 0.00 0.00 0.00 69 1017.2
20181016173424 61 180 1.0 3.0 0.00 0.00 0.00 68 1017.2
20181016171424 63 180 2.0 2.0 0.00 0.00 0.00 66 1017.3
20181016170422 63 180 1.0 2.0 0.00 0.00 0.00 65 1017.2
20181016165422 64 180 1.0 3.0 0.00 0.00 0.00 64 1017.0
20181016164423 65 180 2.0 3.0 0.00 0.00 0.00 63 1017.0
20181016163422 66 180 2.0 4.0 0.00 0.00 0.00 61 1017.0
20181016162422 66 180 2.0 5.0 0.00 0.00 0.00 60 1017.1
20181016161422 67 161 3.0 5.0 0.00 0.00 0.00 59 1017.1
20181016160421 67 190 1.0 4.0 0.00 0.00 0.00 58 1017.0
20181016155422 68 171 3.0 9.0 0.00 0.00 0.00 56 1017.0
20181016154424 68 178 4.0 7.0 0.00 0.00 0.00 55 1017.0
20181016153421 69 190 3.0 7.0 0.00 0.00 0.00 55 1017.1
20181016152434 69 190 3.0 6.0 0.00 0.00 0.00 54 1017.0
20181016151423 70 195 2.0 7.0 0.00 0.00 0.00 54 1017.2
20181016150420 70 246 2.0 10.0 0.00 0.00 0.00 53 1017.1
20181016145427 70 199 2.0 10.0 0.00 0.00 0.00 52 1017.0
20181016144418 71 201 4.0 10.0 0.00 0.00 0.00 51 1016.9
20181016143418 71 192 5.0 11.0 0.00 0.00 0.00 51 1017.0
20181016142418 71 242 5.0 10.0 0.00 0.00 0.00 51 1016.9
20181016141421 71 218 4.0 11.0 0.00 0.00 0.00 51 1016.9
20181016140418 72 199 4.0 12.0 0.00 0.00 0.00 50 1016.8
20181016135417 72 185 5.0 12.0 0.00 0.00 0.00 49 1016.9
20181016134417 73 229 6.0 11.0 0.00 0.00 0.00 47 1016.9
20181016133416 74 223 6.0 12.0 0.00 0.00 0.00 47 1016.8
20181016132416 74 214 4.0 12.0 0.00 0.00 0.00 47 1016.8
20181016131415 74 163 4.0 12.0 0.00 0.00 0.00 47 1016.9
20181016130416 75 261 4.0 10.0 0.00 0.00 0.00 47 1016.9
20181016125415 74 252 5.0 14.0 0.00 0.00 0.00 47 1017.0
20181016124414 74 194 5.0 11.0 0.00 0.00 0.00 47 1016.9
20181016123415 74 222 5.0 14.0 0.00 0.00 0.00 47 1016.9
20181016122415 74 175 6.0 13.0 0.00 0.00 0.00 47 1016.9
20181016121415 74 191 6.0 16.0 0.00 0.00 0.00 49 1016.9
20181016120415 75 204 7.0 14.0 0.00 0.00 0.00 50 1016.9
20181016115415 75 197 7.0 12.0 0.00 0.00 0.00 50 1016.9
20181016114415 74 185 6.0 13.0 0.00 0.00 0.00 51 1017.0
20181016113415 74 228 7.0 17.0 0.00 0.00 0.00 52 1016.9
20181016112416 74 175 6.0 13.0 0.00 0.00 0.00 54 1016.9
20181016111415 73 154 4.0 9.0 0.00 0.00 0.00 60 1017.0
20181016110415 73 194 4.0 10.0 0.00 0.00 0.00 59 1017.0
20181016105414 73 168 4.0 12.0 0.00 0.00 0.00 60 1017.0
20181016104413 72 166 5.0 9.0 0.00 0.00 0.00 61 1017.1
20181016103414 73 170 5.0 10.0 0.00 0.00 0.00 59 1016.9
20181016102414 72 177 4.0 12.0 0.00 0.00 0.00 59 1016.9
20181016101414 72 214 5.0 11.0 0.00 0.00 0.00 59 1017.0
20181016100413 71 168 2.0 9.0 0.00 0.00 0.00 65 1016.9